| time (UTC) | temp C | wind direction | speed KPH | gust KPH | rain 1hr cm | rain 24hr cm | rain mn cm | humidity % | barometer mb |
| 20260503055045 | 2 | 198 | 3.2 | 6.4 | 0.00 | 0.00 | 0.00 | 86 | 1018.5 |
| 20260503054550 | 2 | 196 | 4.8 | 6.4 | 0.00 | 0.00 | 0.00 | 85 | 1018.6 |
| 20260503054045 | 2 | 195 | 3.2 | 6.4 | 0.00 | 0.00 | 0.00 | 85 | 1018.7 |
| 20260503053547 | 2 | 195 | 3.2 | 6.4 | 0.00 | 0.00 | 0.00 | 85 | 1018.6 |
| 20260503053053 | 2 | 201 | 3.2 | 6.4 | 0.00 | 0.00 | 0.00 | 84 | 1018.7 |
| 20260503052543 | 2 | 208 | 3.2 | 6.4 | 0.00 | 0.00 | 0.00 | 84 | 1018.6 |
| 20260503052047 | 2 | 209 | 3.2 | 4.8 | 0.00 | 0.00 | 0.00 | 84 | 1018.6 |
| 20260503051553 | 2 | 209 | 3.2 | 4.8 | 0.00 | 0.00 | 0.00 | 83 | 1018.6 |
| 20260503051043 | 2 | 209 | 3.2 | 6.4 | 0.00 | 0.00 | 0.00 | 82 | 1018.6 |
| 20260503050546 | 3 | 209 | 3.2 | 6.4 | 0.00 | 0.00 | 0.00 | 81 | 1018.6 |
| 20260503050055 | 3 | 209 | 3.2 | 6.4 | 0.00 | 0.00 | 0.00 | 80 | 1018.6 |
| 20260503045546 | 3 | 210 | 3.2 | 4.8 | 0.00 | 0.00 | 0.00 | 79 | 1018.5 |
| 20260503045046 | 3 | 238 | 1.6 | 3.2 | 0.00 | 0.00 | 0.00 | 79 | 1018.5 |
| 20260503044558 | 3 | 0 | 0.0 | 3.2 | 0.00 | 0.00 | 0.00 | 79 | 1018.5 |
| 20260503044046 | 3 | 238 | 1.6 | 3.2 | 0.00 | 0.00 | 0.00 | 78 | 1018.4 |
| 20260503043545 | 3 | 238 | 1.6 | 4.8 | 0.00 | 0.00 | 0.00 | 77 | 1018.4 |
| 20260503043054 | 4 | 238 | 1.6 | 4.8 | 0.00 | 0.00 | 0.00 | 75 | 1018.5 |
| 20260503042545 | 4 | 0 | 0.0 | 4.8 | 0.00 | 0.00 | 0.00 | 75 | 1018.5 |
| 20260503042045 | 4 | 232 | 3.2 | 4.8 | 0.00 | 0.00 | 0.00 | 73 | 1018.5 |
| 20260503041601 | 5 | 232 | 3.2 | 4.8 | 0.00 | 0.00 | 0.00 | 71 | 1018.4 |
| 20260503041045 | 5 | 301 | 1.6 | 4.8 | 0.00 | 0.00 | 0.00 | 68 | 1018.4 |
| 20260503040545 | 5 | 301 | 1.6 | 4.8 | 0.00 | 0.00 | 0.00 | 64 | 1018.3 |
| 20260503035543 | 6 | 319 | 0.0 | 6.4 | 0.00 | 0.00 | 0.00 | 62 | 1018.3 |
| 20260503035044 | 6 | 321 | 3.2 | 6.4 | 0.00 | 0.00 | 0.00 | 59 | 1018.3 |
| 20260503034609 | 6 | 322 | 3.2 | 9.7 | 0.00 | 0.00 | 0.00 | 58 | 1018.3 |
| 20260503034046 | 6 | 313 | 4.8 | 9.7 | 0.00 | 0.00 | 0.00 | 58 | 1018.2 |
| 20260503033546 | 6 | 313 | 4.8 | 9.7 | 0.00 | 0.00 | 0.00 | 57 | 1018.3 |
| 20260503033058 | 6 | 309 | 4.8 | 12.9 | 0.00 | 0.00 | 0.00 | 56 | 1018.3 |
| 20260503032545 | 6 | 316 | 6.4 | 12.9 | 0.00 | 0.00 | 0.00 | 55 | 1018.2 |
| 20260503032045 | 6 | 321 | 6.4 | 9.7 | 0.00 | 0.00 | 0.00 | 55 | 1018.2 |
| 20260503031557 | 6 | 338 | 4.8 | 12.9 | 0.00 | 0.00 | 0.00 | 55 | 1018.0 |
| 20260503031046 | 6 | 336 | 6.4 | 14.5 | 0.00 | 0.00 | 0.00 | 55 | 1018.0 |
| 20260503030545 | 6 | 11 | 8.0 | 14.5 | 0.00 | 0.00 | 0.00 | 54 | 1018.1 |
| 20260503030049 | 7 | 325 | 6.4 | 14.5 | 0.00 | 0.00 | 0.00 | 54 | 1018.0 |
| 20260503025546 | 7 | 355 | 6.4 | 14.5 | 0.00 | 0.00 | 0.00 | 54 | 1018.0 |
| 20260503025045 | 7 | 355 | 6.4 | 11.3 | 0.00 | 0.00 | 0.00 | 54 | 1018.0 |
| 20260503024554 | 7 | 350 | 4.8 | 12.9 | 0.00 | 0.00 | 0.00 | 54 | 1018.1 |
| 20260503024047 | 7 | 347 | 4.8 | 12.9 | 0.00 | 0.00 | 0.00 | 54 | 1018.0 |
| 20260503023545 | 7 | 355 | 6.4 | 12.9 | 0.00 | 0.00 | 0.00 | 54 | 1018.0 |
| 20260503023051 | 7 | 346 | 6.4 | 12.9 | 0.00 | 0.00 | 0.00 | 54 | 1017.9 |
| 20260503022542 | 7 | 11 | 6.4 | 14.5 | 0.00 | 0.00 | 0.00 | 53 | 1017.9 |
| 20260503022042 | 7 | 355 | 8.0 | 14.5 | 0.00 | 0.00 | 0.00 | 53 | 1017.9 |
| 20260503021551 | 7 | 355 | 6.4 | 14.5 | 0.00 | 0.00 | 0.00 | 53 | 1017.9 |
| 20260503021046 | 7 | 342 | 6.4 | 14.5 | 0.00 | 0.00 | 0.00 | 52 | 1017.8 |
| 20260503020546 | 7 | 336 | 8.0 | 16.1 | 0.00 | 0.00 | 0.00 | 52 | 1017.9 |
| 20260503020055 | 7 | 11 | 8.0 | 16.1 | 0.00 | 0.00 | 0.00 | 52 | 1017.6 |
| 20260503015545 | 7 | 355 | 9.7 | 16.1 | 0.00 | 0.00 | 0.00 | 52 | 1017.5 |
| 20260503015047 | 8 | 350 | 9.7 | 16.1 | 0.00 | 0.00 | 0.00 | 52 | 1017.6 |
| 20260503014604 | 8 | 360 | 6.4 | 11.3 | 0.00 | 0.00 | 0.00 | 52 | 1017.4 |
| 20260503014046 | 8 | 13 | 6.4 | 12.9 | 0.00 | 0.00 | 0.00 | 51 | 1017.3 |
| 20260503013545 | 8 | 329 | 6.4 | 12.9 | 0.00 | 0.00 | 0.00 | 50 | 1017.2 |
| 20260503013052 | 8 | 355 | 6.4 | 14.5 | 0.00 | 0.00 | 0.00 | 50 | 1017.1 |
| 20260503012546 | 8 | 360 | 8.0 | 14.5 | 0.00 | 0.00 | 0.00 | 49 | 1017.1 |
| 20260503012046 | 8 | 344 | 8.0 | 16.1 | 0.00 | 0.00 | 0.00 | 49 | 1017.0 |
| 20260503011552 | 8 | 360 | 9.7 | 16.1 | 0.00 | 0.00 | 0.00 | 49 | 1017.0 |
| 20260503011048 | 8 | 325 | 9.7 | 17.7 | 0.00 | 0.00 | 0.00 | 48 | 1017.0 |
| 20260503010545 | 8 | 340 | 8.0 | 17.7 | 0.00 | 0.00 | 0.00 | 48 | 1016.8 |
| 20260503010053 | 9 | 342 | 8.0 | 16.1 | 0.00 | 0.00 | 0.00 | 48 | 1016.8 |
| 20260503005546 | 9 | 336 | 9.7 | 16.1 | 0.00 | 0.00 | 0.00 | 48 | 1016.8 |
| 20260503005046 | 9 | 348 | 8.0 | 17.7 | 0.00 | 0.00 | 0.00 | 48 | 1016.7 |
| 20260503004552 | 9 | 336 | 11.3 | 17.7 | 0.00 | 0.00 | 0.00 | 48 | 1016.7 |
| 20260503004047 | 9 | 337 | 8.0 | 20.9 | 0.00 | 0.00 | 0.00 | 48 | 1016.6 |
| 20260503003545 | 10 | 15 | 14.5 | 20.9 | 0.00 | 0.00 | 0.00 | 47 | 1016.6 |
| 20260503003104 | 10 | 5 | 11.3 | 19.3 | 0.00 | 0.00 | 0.00 | 48 | 1016.6 |
| 20260503002546 | 10 | 342 | 11.3 | 14.5 | 0.00 | 0.00 | 0.00 | 47 | 1016.6 |
| 20260503002045 | 10 | 336 | 8.0 | 12.9 | 0.00 | 0.00 | 0.00 | 46 | 1016.5 |
| 20260503001609 | 10 | 343 | 4.8 | 12.9 | 0.00 | 0.00 | 0.00 | 47 | 1016.4 |
| 20260503001045 | 10 | 320 | 6.4 | 12.9 | 0.00 | 0.00 | 0.00 | 45 | 1016.3 |
| 20260503000546 | 10 | 321 | 8.0 | 12.9 | 0.00 | 0.00 | 0.00 | 45 | 1016.2 |
| 20260503000055 | 10 | 327 | 8.0 | 12.9 | 0.00 | 0.00 | 0.00 | 45 | 1016.2 |
| 20260502235545 | 10 | 340 | 6.4 | 12.9 | 0.00 | 0.00 | 0.00 | 44 | 1016.2 |
| 20260502235047 | 11 | 342 | 4.8 | 14.5 | 0.00 | 0.00 | 0.00 | 44 | 1016.1 |
| 20260502234553 | 11 | 327 | 4.8 | 16.1 | 0.00 | 0.00 | 0.00 | 45 | 1016.1 |
| 20260502234047 | 11 | 316 | 11.3 | 22.5 | 0.00 | 0.00 | 0.00 | 44 | 1016.1 |
| 20260502233547 | 11 | 301 | 11.3 | 22.5 | 0.00 | 0.00 | 0.00 | 43 | 1016.1 |
| 20260502233057 | 11 | 271 | 14.5 | 22.5 | 0.00 | 0.00 | 0.00 | 43 | 1016.1 |
| 20260502232545 | 11 | 277 | 11.3 | 20.9 | 0.00 | 0.00 | 0.00 | 42 | 1015.9 |
| 20260502232046 | 11 | 269 | 14.5 | 20.9 | 0.00 | 0.00 | 0.00 | 42 | 1015.9 |
| 20260502231551 | 11 | 278 | 9.7 | 19.3 | 0.00 | 0.00 | 0.00 | 44 | 1015.9 |
| 20260502231047 | 11 | 286 | 8.0 | 16.1 | 0.00 | 0.00 | 0.00 | 43 | 1015.8 |
| 20260502230547 | 11 | 299 | 8.0 | 22.5 | 0.00 | 0.00 | 0.00 | 43 | 1015.9 |
| 20260502230056 | 11 | 300 | 12.9 | 22.5 | 0.00 | 0.00 | 0.00 | 43 | 1015.9 |
| 20260502225546 | 11 | 296 | 16.1 | 22.5 | 0.00 | 0.00 | 0.00 | 43 | 1016.0 |
| 20260502225045 | 11 | 268 | 8.0 | 14.5 | 0.00 | 0.00 | 0.00 | 44 | 1016.0 |
| 20260502224551 | 11 | 292 | 11.3 | 14.5 | 0.00 | 0.00 | 0.00 | 44 | 1015.9 |
| 20260502224045 | 11 | 291 | 6.4 | 16.1 | 0.00 | 0.00 | 0.00 | 45 | 1015.9 |
| 20260502223545 | 11 | 293 | 9.7 | 19.3 | 0.00 | 0.00 | 0.00 | 44 | 1015.9 |
| 20260502223051 | 11 | 273 | 12.9 | 19.3 | 0.00 | 0.00 | 0.00 | 43 | 1015.7 |
| 20260502222545 | 11 | 284 | 12.9 | 19.3 | 0.00 | 0.00 | 0.00 | 42 | 1015.7 |
| 20260502222048 | 11 | 271 | 12.9 | 20.9 | 0.00 | 0.00 | 0.00 | 42 | 1015.7 |
| 20260502221554 | 11 | 286 | 14.5 | 24.1 | 0.00 | 0.00 | 0.00 | 43 | 1015.8 |
| 20260502221047 | 11 | 305 | 14.5 | 24.1 | 0.00 | 0.00 | 0.00 | 43 | 1015.6 |
| 20260502220547 | 11 | 292 | 14.5 | 24.1 | 0.00 | 0.00 | 0.00 | 42 | 1015.7 |
| 20260502220055 | 11 | 303 | 12.9 | 20.9 | 0.00 | 0.00 | 0.00 | 42 | 1015.7 |
| 20260502215545 | 11 | 308 | 14.5 | 20.9 | 0.00 | 0.00 | 0.00 | 41 | 1015.5 |
| 20260502215045 | 11 | 292 | 16.1 | 20.9 | 0.00 | 0.00 | 0.00 | 41 | 1015.5 |
| 20260502214600 | 11 | 279 | 11.3 | 19.3 | 0.00 | 0.00 | 0.00 | 41 | 1015.5 |
| 20260502214046 | 11 | 289 | 14.5 | 25.7 | 0.00 | 0.00 | 0.00 | 41 | 1015.4 |
| 20260502213546 | 11 | 319 | 14.5 | 25.7 | 0.00 | 0.00 | 0.00 | 39 | 1015.4 |
| 20260502213051 | 11 | 311 | 17.7 | 25.7 | 0.00 | 0.00 | 0.00 | 40 | 1015.4 |
| 20260502212545 | 11 | 290 | 16.1 | 22.5 | 0.00 | 0.00 | 0.00 | 41 | 1015.3 |
| 20260502212046 | 11 | 274 | 16.1 | 27.4 | 0.00 | 0.00 | 0.00 | 40 | 1015.3 |
| 20260502211554 | 11 | 290 | 20.9 | 30.6 | 0.00 | 0.00 | 0.00 | 40 | 1015.3 |
| 20260502211045 | 11 | 294 | 20.9 | 30.6 | 0.00 | 0.00 | 0.00 | 39 | 1015.4 |
| 20260502210545 | 11 | 274 | 11.3 | 24.1 | 0.00 | 0.00 | 0.00 | 40 | 1015.4 |
| 20260502210121 | 12 | 309 | 17.7 | 27.4 | 0.00 | 0.00 | 0.00 | 40 | 1015.4 |
| 20260502205545 | 12 | 286 | 17.7 | 27.4 | 0.00 | 0.00 | 0.00 | 39 | 1015.5 |
| 20260502205048 | 12 | 283 | 9.7 | 24.1 | 0.00 | 0.00 | 0.00 | 41 | 1015.4 |
| 20260502204559 | 12 | 271 | 3.2 | 24.1 | 0.00 | 0.00 | 0.00 | 41 | 1015.4 |
| 20260502204047 | 12 | 306 | 17.7 | 25.7 | 0.00 | 0.00 | 0.00 | 39 | 1015.4 |
| 20260502203546 | 11 | 277 | 19.3 | 29.0 | 0.00 | 0.00 | 0.00 | 40 | 1015.5 |
| 20260502203058 | 12 | 282 | 17.7 | 29.0 | 0.00 | 0.00 | 0.00 | 41 | 1015.5 |
| 20260502202545 | 11 | 290 | 16.1 | 24.1 | 0.00 | 0.00 | 0.00 | 41 | 1015.5 |
| 20260502202045 | 11 | 287 | 14.5 | 22.5 | 0.00 | 0.00 | 0.00 | 41 | 1015.5 |
| 20260502201607 | 11 | 268 | 11.3 | 19.3 | 0.00 | 0.00 | 0.00 | 41 | 1015.5 |
| 20260502201046 | 11 | 287 | 12.9 | 19.3 | 0.00 | 0.00 | 0.00 | 40 | 1015.6 |
| 20260502200546 | 11 | 298 | 11.3 | 25.7 | 0.00 | 0.00 | 0.00 | 42 | 1015.6 |
| 20260502200053 | 11 | 298 | 12.9 | 27.4 | 0.00 | 0.00 | 0.00 | 40 | 1015.7 |
| 20260502195545 | 11 | 298 | 14.5 | 27.4 | 0.00 | 0.00 | 0.00 | 40 | 1015.7 |
| 20260502195045 | 11 | 302 | 17.7 | 27.4 | 0.00 | 0.00 | 0.00 | 40 | 1015.7 |
| 20260502194555 | 12 | 333 | 14.5 | 22.5 | 0.00 | 0.00 | 0.00 | 40 | 1015.7 |
| 20260502194045 | 12 | 250 | 9.7 | 22.5 | 0.00 | 0.00 | 0.00 | 39 | 1015.7 |
| 20260502193547 | 12 | 286 | 14.5 | 22.5 | 0.00 | 0.00 | 0.00 | 41 | 1015.9 |
| 20260502193058 | 11 | 290 | 16.1 | 27.4 | 0.00 | 0.00 | 0.00 | 41 | 1015.9 |
| 20260502192546 | 11 | 272 | 19.3 | 27.4 | 0.00 | 0.00 | 0.00 | 41 | 1015.8 |
| 20260502192046 | 11 | 259 | 16.1 | 22.5 | 0.00 | 0.00 | 0.00 | 41 | 1015.8 |
| 20260502191600 | 12 | 264 | 14.5 | 27.4 | 0.00 | 0.00 | 0.00 | 40 | 1015.8 |
| 20260502191046 | 12 | 312 | 16.1 | 27.4 | 0.00 | 0.00 | 0.00 | 39 | 1015.8 |
| 20260502190546 | 12 | 284 | 16.1 | 24.1 | 0.00 | 0.00 | 0.00 | 41 | 1016.0 |
| 20260502190059 | 12 | 290 | 8.0 | 27.4 | 0.00 | 0.00 | 0.00 | 43 | 1016.1 |
| 20260502185545 | 11 | 305 | 19.3 | 27.4 | 0.00 | 0.00 | 0.00 | 42 | 1016.2 |
| 20260502185045 | 11 | 325 | 14.5 | 24.1 | 0.00 | 0.00 | 0.00 | 43 | 1016.2 |
| 20260502184604 | 11 | 335 | 16.1 | 27.4 | 0.00 | 0.00 | 0.00 | 42 | 1016.2 |
| 20260502184045 | 11 | 324 | 19.3 | 27.4 | 0.00 | 0.00 | 0.00 | 42 | 1016.2 |
| 20260502183546 | 11 | 335 | 16.1 | 30.6 | 0.00 | 0.00 | 0.00 | 41 | 1016.2 |
| 20260502183103 | 11 | 333 | 19.3 | 30.6 | 0.00 | 0.00 | 0.00 | 42 | 1016.2 |
| 20260502182547 | 12 | 340 | 20.9 | 30.6 | 0.00 | 0.00 | 0.00 | 39 | 1016.1 |
| 20260502182045 | 12 | 285 | 8.0 | 25.7 | 0.00 | 0.00 | 0.00 | 42 | 1016.0 |
| 20260502181608 | 11 | 324 | 11.3 | 24.1 | 0.00 | 0.00 | 0.00 | 41 | 1016.2 |
| 20260502181049 | 11 | 271 | 6.4 | 17.7 | 0.00 | 0.00 | 0.00 | 44 | 1016.3 |
| 20260502180545 | 11 | 324 | 8.0 | 20.9 | 0.00 | 0.00 | 0.00 | 44 | 1016.3 |
| 20260502164045 | 11 | 296 | 12.9 | 20.9 | 0.00 | 0.00 | 0.00 | 46 | 1017.0 |
| 20260502163545 | 11 | 288 | 11.3 | 20.9 | 0.00 | 0.00 | 0.00 | 45 | 1016.8 |
| 20260502163059 | 10 | 248 | 3.2 | 16.1 | 0.00 | 0.00 | 0.00 | 46 | 1016.9 |
| 20260502162547 | 10 | 0 | 4.8 | 19.3 | 0.00 | 0.00 | 0.00 | 45 | 1016.8 |
| 20260502162045 | 11 | 318 | 6.4 | 20.9 | 0.00 | 0.00 | 0.00 | 46 | 1016.8 |
| 20260502161557 | 11 | 340 | 14.5 | 20.9 | 0.00 | 0.00 | 0.00 | 45 | 1017.0 |
| 20260502161047 | 11 | 289 | 9.7 | 20.9 | 0.00 | 0.00 | 0.00 | 47 | 1016.9 |
| 20260502160546 | 11 | 273 | 11.3 | 20.9 | 0.00 | 0.00 | 0.00 | 44 | 1017.1 |
| 20260502152048 | 10 | 269 | 9.7 | 17.7 | 0.00 | 0.00 | 0.00 | 51 | 1017.3 |
| 20260502151603 | 10 | 349 | 4.8 | 16.1 | 0.00 | 0.00 | 0.00 | 49 | 1017.2 |
| 20260502151047 | 10 | 9 | 6.4 | 16.1 | 0.00 | 0.00 | 0.00 | 49 | 1017.3 |
| 20260502150547 | 10 | 302 | 3.2 | 14.5 | 0.00 | 0.00 | 0.00 | 48 | 1017.3 |
| 20260502150105 | 10 | 275 | 8.0 | 14.5 | 0.00 | 0.00 | 0.00 | 50 | 1017.3 |
| 20260502130546 | 6 | 0 | 0.0 | 3.2 | 0.00 | 0.00 | 0.00 | 88 | 1017.2 |
| 20260502123547 | 4 | 292 | 4.8 | 8.0 | 0.00 | 0.00 | 0.00 | 92 | 1017.1 |
| 20260502123105 | 4 | 291 | 4.8 | 8.0 | 0.00 | 0.00 | 0.00 | 92 | 1017.1 |
| 20260502122545 | 3 | 302 | 4.8 | 6.4 | 0.00 | 0.00 | 0.00 | 93 | 1017.1 |
| 20260502122047 | 3 | 301 | 1.6 | 4.8 | 0.00 | 0.00 | 0.00 | 94 | 1017.0 |
| 20260502121557 | 3 | 298 | 0.0 | 4.8 | 0.00 | 0.00 | 0.00 | 94 | 1017.1 |
| 20260502121047 | 2 | 0 | 0.0 | 3.2 | 0.00 | 0.00 | 0.00 | 94 | 1017.1 |
| 20260502120547 | 2 | 0 | 0.0 | 0.0 | 0.00 | 0.00 | 0.00 | 94 | 1017.1 |
| 20260502115546 | 2 | 0 | 0.0 | 4.8 | 0.00 | 0.00 | 0.00 | 94 | 1017.1 |
| 20260502115046 | 2 | 0 | 0.0 | 4.8 | 0.00 | 0.00 | 0.00 | 94 | 1017.0 |
| 20260502114558 | 2 | 291 | 3.2 | 4.8 | 0.00 | 0.00 | 0.00 | 94 | 1016.9 |
| 20260502114047 | 2 | 286 | 3.2 | 4.8 | 0.00 | 0.00 | 0.00 | 94 | 1016.9 |
| 20260502113550 | 2 | 284 | 3.2 | 4.8 | 0.00 | 0.00 | 0.00 | 94 | 1016.9 |
| 20260502113053 | 2 | 281 | 3.2 | 4.8 | 0.00 | 0.00 | 0.00 | 94 | 1016.8 |
| 20260502112545 | 1 | 269 | 1.6 | 4.8 | 0.00 | 0.00 | 0.00 | 94 | 1016.8 |
| 20260502112045 | 1 | 280 | 1.6 | 4.8 | 0.00 | 0.00 | 0.00 | 94 | 1016.9 |
| 20260502111557 | 1 | 280 | 3.2 | 4.8 | 0.00 | 0.00 | 0.00 | 94 | 1016.8 |
| 20260502111045 | 1 | 280 | 3.2 | 4.8 | 0.00 | 0.00 | 0.00 | 94 | 1016.6 |
| 20260502110545 | 1 | 0 | 0.0 | 6.4 | 0.00 | 0.00 | 0.00 | 94 | 1016.7 |
| 20260502110059 | 1 | 293 | 3.2 | 6.4 | 0.00 | 0.00 | 0.00 | 94 | 1016.6 |
| 20260502105550 | 1 | 298 | 3.2 | 4.8 | 0.00 | 0.00 | 0.00 | 94 | 1016.6 |
| 20260502105047 | 1 | 292 | 1.6 | 6.4 | 0.00 | 0.00 | 0.00 | 94 | 1016.6 |
| 20260502104558 | 1 | 288 | 1.6 | 6.4 | 0.00 | 0.00 | 0.00 | 94 | 1016.6 |
| 20260502104047 | 1 | 286 | 3.2 | 4.8 | 0.00 | 0.00 | 0.00 | 93 | 1016.6 |
| 20260502103546 | 1 | 0 | 0.0 | 0.0 | 0.00 | 0.00 | 0.00 | 93 | 1016.6 |
| 20260502103100 | 1 | 0 | 0.0 | 0.0 | 0.00 | 0.00 | 0.00 | 93 | 1016.6 |
| 20260502102549 | 1 | 0 | 0.0 | 0.0 | 0.00 | 0.00 | 0.00 | 93 | 1016.6 |
| 20260502102047 | 1 | 0 | 0.0 | 0.0 | 0.00 | 0.00 | 0.00 | 93 | 1016.5 |
| 20260502101620 | 1 | 0 | 0.0 | 1.6 | 0.00 | 0.00 | 0.00 | 93 | 1016.6 |
| 20260502101046 | 1 | 0 | 0.0 | 1.6 | 0.00 | 0.00 | 0.00 | 93 | 1016.6 |
| 20260502100547 | 1 | 0 | 0.0 | 4.8 | 0.00 | 0.00 | 0.00 | 93 | 1016.8 |
| 20260502100116 | 1 | 222 | 0.0 | 4.8 | 0.00 | 0.00 | 0.00 | 93 | 1017.0 |
| 20260502091046 | 1 | 0 | 0.0 | 0.0 | 0.00 | 0.00 | 0.00 | 93 | 1016.8 |
| 20260502090546 | 1 | 0 | 0.0 | 0.0 | 0.00 | 0.00 | 0.00 | 93 | 1016.8 |
| 20260502080104 | 2 | 182 | 3.2 | 6.4 | 0.00 | 0.00 | 0.00 | 92 | 1016.8 |
| 20260502071043 | 2 | 0 | 0.0 | 0.0 | 0.00 | 0.00 | 0.00 | 91 | 1016.5 |
| 20260502070543 | 2 | 0 | 0.0 | 0.0 | 0.00 | 0.00 | 0.00 | 91 | 1016.5 |
| 20260502070056 | 2 | 0 | 0.0 | 0.0 | 0.00 | 0.00 | 0.00 | 91 | 1016.6 |
| 20260502065546 | 2 | 0 | 0.0 | 0.0 | 0.00 | 0.00 | 0.00 | 91 | 1016.6 |
| 20260502065045 | 2 | 0 | 0.0 | 0.0 | 0.00 | 0.00 | 0.00 | 91 | 1016.6 |
| 20260502064558 | 2 | 0 | 0.0 | 0.0 | 0.00 | 0.00 | 0.00 | 91 | 1016.5 |
| 20260502064045 | 2 | 0 | 0.0 | 0.0 | 0.00 | 0.00 | 0.00 | 91 | 1016.7 |
| 20260502063543 | 2 | 0 | 0.0 | 0.0 | 0.00 | 0.00 | 0.00 | 91 | 1016.7 |